Location: *
(45.5667°S, 177.5167°W)
Time: 16:03:51
(UTC+00:00)

Cosmos 1697 Rocket - Pass Details

Date: 29 May 2022
Orbit: 833 x 843 km, 71.0° (Epoch: 28 June)

Event Time Altitude Azimuth Distance (km) Brightness Sun altitude
Rises 05:50:39 0° 214° (SSW) 3,424 6.1 -15.8°
Reaches altitude 10° 05:53:17 10° 222° (SW) 2,484 5.5 -16.2°
Maximum altitude 05:58:24 35° 285° (WNW) 1,332 4.4 -17.1°
Drops below altitude 10° 06:03:29 10° 350° (N) 2,462 5.4 -18.0°
Sets 06:06:06 0° 358° (N) 3,389 6.0 -18.4°
